Bozeman, MT

9:36 PM MDT on June 22, 2017 (GMT -0600)
Gallatin

Weather History for KBZN - March, 2013

Change the Weather History Date:

Sunday, March 24, 2013

  Actual Average Record
Temperature  
Mean Temperature 26 °F 39 °F  
Max Temperature 35 °F 53 °F 74 °F (2007)
Min Temperature 16 °F 26 °F -24 °F (1965)
Degree Days  
Heating Degree Days 39 26  
Month to date heating degree days 774 712  
Since 1 July heating degree days 6506 6292  
Cooling Degree Days 0 0  
Month to date cooling degree days 0 0  
Year to date cooling degree days 0 0  
Moisture  
Dew Point 10 °F    
Average Humidity 53    
Maximum Humidity 80    
Minimum Humidity 25    
Precipitation  
Precipitation T in 0.03 in 0.81 in (1995)
Month to date precipitation 0.17 0.66  
Year to date precipitation 0.48 1.57  
Snow  
Snow 0.00 in 0.30 in 7.80 in (1995)
Month to date snowfall 1.4 5.8  
Since 1 July snowfall 19.3 28.1  
Snow Depth -    
Sea Level Pressure  
Sea Level Pressure 30.34 in    
Wind  
Wind Speed 4 mph (South)    
Max Wind Speed 10 mph    
Max Gust Speed 14 mph    
Visibility 10 miles    
Events Snow    
T = Trace of Precipitation, MM = Missing Value Source: NWS Daily Summary

Daily Weather History Graph

Daily Weather History Graph

Search for Another Location

Airport or City:

Trip Planner

Search our weather history database for the weather conditions in past years. The results will help you decide how hot, cold, wet, or windy it might be!

Date:

Astronomy

Mar. 24, 2013 Rise Set
Actual Time 7:19 AM MDT 7:42 PM MDT
Civil Twilight 6:49 AM MDT 8:12 PM MDT
Nautical Twilight 6:14 AM MDT 8:47 PM MDT
Astronomical Twilight 5:38 AM MDT 9:24 PM MDT
Moon 5:08 PM MDT (3/24) 5:39 AM MDT (3/24)
Length of Visible Light 13h 23m
Length of Day
12h 23m
Waxing Gibbous, 92% of the Moon is Illuminated
Mar 24
Waxing Gibbous
Mar 27
Full
Apr 2
Last Quarter
Apr 10
New
Apr 18
First Quarter

Hourly Weather History & Observations

Time (MDT) Temp. Windchill Dew Point Humidity Pressure Visibility Wind Dir Wind Speed Gust Speed Precip Events Conditions
12:56 AM 19.0 °F 10.0 °F 10.0 °F 68% 30.35 in 10.0 mi South 6.9 mph - N/A   Overcast
1:56 AM 18.0 °F 9.8 °F 10.9 °F 74% 30.34 in 10.0 mi SSE 5.8 mph - 0.00 in   Overcast
2:56 AM 18.0 °F - 10.9 °F 74% 30.35 in 10.0 mi Calm Calm - 0.00 in   Overcast
3:56 AM 19.0 °F 12.3 °F 12.9 °F 77% 30.35 in 10.0 mi SSE 4.6 mph - 0.00 in   Overcast
4:56 AM 19.0 °F 13.9 °F 14.0 °F 81% 30.35 in 5.0 mi South 3.5 mph - 0.00 in Snow Light Snow
5:56 AM 18.0 °F 12.7 °F 12.9 °F 81% 30.36 in 6.0 mi SW 3.5 mph - 0.00 in Snow Light Snow
6:48 AM 17.6 °F - 12.2 °F 79% 30.22 in 8.0 mi Calm Calm - 0.00 in   Overcast
6:56 AM 18.0 °F - 12.9 °F 81% 30.38 in 10.0 mi Calm Calm - 0.00 in   Overcast
7:56 AM 19.0 °F - 12.9 °F 77% 30.40 in 9.0 mi Calm Calm - N/A   Overcast
8:56 AM 18.0 °F - 12.0 °F 78% 30.41 in 10.0 mi Calm Calm - 0.00 in   Overcast
9:18 AM 17.6 °F - 12.2 °F 79% 30.25 in 10.0 mi Calm Calm - N/A   Overcast
9:56 AM 19.9 °F - 14.0 °F 78% 30.43 in 10.0 mi Calm Calm - 0.00 in   Mostly Cloudy
10:56 AM 25.0 °F 20.7 °F 15.1 °F 66% 30.43 in 10.0 mi Variable 3.5 mph - N/A   Mostly Cloudy
11:14 AM 24.8 °F - 15.8 °F 69% 30.25 in 10.0 mi Calm Calm - N/A   Overcast
11:24 AM 26.6 °F 21.2 °F 12.2 °F 55% 30.25 in 10.0 mi West 4.6 mph - N/A   Overcast
11:56 AM 26.1 °F - 10.9 °F 53% 30.41 in 10.0 mi Calm Calm - N/A   Overcast
12:56 PM 30.0 °F - 8.1 °F 40% 30.38 in 10.0 mi Calm Calm - N/A   Mostly Cloudy
1:56 PM 30.9 °F 26.2 °F 5.0 °F 33% 30.37 in 10.0 mi Variable 4.6 mph - N/A   Clear
2:56 PM 30.9 °F 27.5 °F 1.0 °F 28% 30.35 in 10.0 mi Variable 3.5 mph - N/A   Mostly Cloudy
3:56 PM 33.1 °F - 1.9 °F 27% 30.33 in 10.0 mi Calm Calm - N/A   Mostly Cloudy
4:56 PM 32.0 °F - 1.9 °F 28% 30.33 in 10.0 mi Calm Calm - N/A   Scattered Clouds
5:56 PM 34.0 °F 29.8 °F 1.9 °F 26% 30.32 in 10.0 mi SW 4.6 mph - N/A   Clear
6:56 PM 32.0 °F 25.6 °F 6.1 °F 34% 30.33 in 10.0 mi South 6.9 mph - N/A   Clear
7:56 PM 26.1 °F 18.4 °F 6.1 °F 43% 30.32 in 10.0 mi SSE 6.9 mph - N/A   Clear
8:56 PM 24.1 °F 16.0 °F 8.1 °F 51% 30.34 in 10.0 mi SSE 6.9 mph - N/A   Clear
9:56 PM 21.9 °F 13.4 °F 10.0 °F 60% 30.34 in 10.0 mi South 6.9 mph - N/A   Clear
10:56 PM 19.9 °F 11.1 °F 10.0 °F 65% 30.32 in 10.0 mi SSE 6.9 mph - N/A   Clear
11:56 PM 19.0 °F 10.0 °F 8.1 °F 62% 30.33 in 10.0 mi SSE 6.9 mph - N/A   Clear